Regional Weather Roundup
Issued by NWS Cleveland, OH

Home | Current Version | Previous Version | Text Only | Print | Product List | Glossary On
Versions: 1 2 3 4 5 6 7 8 9 10 11 12 13 14 15 16 17 18 19 20 21 22 23 24 25 26 27 28 29 30 31 32 33 34 35 36 37 38 39 40 41 42 43 44 45 46 47 48 49 50
000
ASUS41 KCLE 242210
RWRCLE
OHIO REGIONAL WEATHER ROUNDUP
NATIONAL WEATHER SERVICE CLEVELAND, OH
600 PM EDT SUN MAY 24 2015

NOTE: "FAIR" INDICATES FEW OR NO CLOUDS BELOW 12,000 FEET WITH NO
SIGNIFICANT WEATHER AND/OR OBSTRUCTIONS TO VISIBILITY.

OHZ001>008-015>018-024>027-034-035-043-044-242300-
   NORTHWEST OHIO

CITY           SKY/WX    TMP DP  RH WIND       PRES   REMARKS
DEFIANCE       MOSUNNY   83  52  34 S12       30.10F
FINDLAY        MOSUNNY   84  50  30 S15G23    30.12F
TOLEDO EXPRESS PTSUNNY   81  53  37 S7        30.12F
TOLEDO EXEC    CLOUDY    82  50  32 S10       30.13F
LIMA           SUNNY     82  51  34 S13       30.13F
$$

OHZ009>014-019>023-028>033-038-089-242300-
   NORTHEAST OHIO

CITY           SKY/WX    TMP DP  RH WIND       PRES   REMARKS
CLE-HOPKINS    CLOUDY    77  50  38 S7        30.20F
CLE-LAKEFRONT  CLOUDY    78  43  28 SE8       30.17F
CUY CO. ARPT   CLOUDY    81  41  24 SW12      30.21F
LORAIN-ELYRIA  PTSUNNY   80  49  33 S10       30.17F
ASHTABULA      CLOUDY    76  47  35 W5        30.21F
AKRON-CANTON   PTSUNNY   79  45  29 SW9       30.21F
WOOSTER        PTSUNNY   80  47  31 S8        30.20F
MANSFIELD      PTSUNNY   80  51  36 SE12      30.19F
YOUNGSTOWN     CLOUDY    76  46  34 SW8       30.23S
$$

OHZ042-051>053-060>062-070>072-077>081-242300-
  SOUTHWEST OHIO

CITY           SKY/WX    TMP DP  RH WIND       PRES   REMARKS
CINC-COVINGTON MOSUNNY   83  54  36 S18       30.15F
CINC-LUNKEN    SUNNY     82  53  36 S12G21    30.14F
HAMILTON       SUNNY     85  52  32 MISG      30.14F
DAYTON         MOSUNNY   83  51  33 S15       30.15F
WRIGHT-PAT AFB SUNNY     83  49  30 S14       30.15F
DAYTON GENERAL SUNNY     81  50  33 S17G24    30.15F
WILMINGTON     SUNNY     82  46  28 S16G22    30.16F
$$

OHZ036-037-039>041-045>050-054>059-063>069-073>076-082>088-242300-
  CENTRAL AND SOUTHEAST OHIO

CITY           SKY/WX    TMP DP  RH WIND       PRES   REMARKS
COLUMBUS       MOSUNNY   82  52  35 S8        30.17F
OSU AIRPORT    MOSUNNY   83  49  30 S14G20    30.16F
BOLTON FIELD   SUNNY     82  54  36 S13G20    30.17F
RICKENBACK AFB MOSUNNY   82  53  36 S12       30.17S
NEWARK         PTSUNNY   81  53  37 S7        30.18F
MARION         MOSUNNY   83  51  33 S13       30.16F
LANCASTER      MOSUNNY   82  52  35 S10       30.19F
ZANESVILLE     PTSUNNY   80  52  37 S9        30.20F
NEW PHILLY     PTSUNNY   83  49  30 SW8       30.21F
$$


USA.gov is the U.S. government's official web portal to all federal, state and local government web resources and services.